Tracking 28790 objects as of 19-Apr-2024
HD Live streaming from Space Station
objects crossing your sky now

OPS 4682 DEB

Track OPS 4682 DEB now!
10-day predictions


NORAD ID: 14715
Int'l Code: 1965-027N
Perigee: 1,249.8 km
Apogee: 1,319.5 km
Inclination: 90.3 °
Period: 111.1 minutes
Semi major axis: 7655 km
RCS: 0.0213 m2 (small)
Launch date: April 3, 1965
Source: United States (US)
Launch site: AIR FORCE WESTERN TEST RANGE (AFWTR)

Note: This is SATELLITE DEBRIS
Your satellite tracking list
Your tracking list is empty




NASA's NSSDC Master Catalog

Two Line Element Set (TLE):
1 14715U 65027N   24107.36799876  .00000071  00000-0  22190-3 0  9992
2 14715  90.2515 331.5133 0045528  60.1368 115.9240 12.96080376906345
Source of the keplerian elements: AFSPC